RYR99RR EDDF-EDLV

Flight info

Callsign RYR99RR
Flight time 0h 31m
Altitude 22000
Route MARUN6E/07C MARUN Y152 ARPEG Z850 SOBTU SOBTU1W
Aircraft B38M/M-SDE1FGHILORVWXY/HB1

Departure

Time 2026-05-07 18:44
Airport Frankfurt Main Airport (EDDF)

Arrival

Time 2026-05-07 19:15
Airport Weeze (Niederrhein) Airport (EDLV)
Time Latitude Longitude Altitude Speed Heading
2026-05-07 18:12 50.03654 8.58778 361 ft 0 kts 70°
2026-05-07 18:34 50.03656 8.58784 361 ft 2 kts 70°
2026-05-07 18:34 50.03669 8.58835 363 ft 8 kts 66°
2026-05-07 18:35 50.03690 8.58873 364 ft 1 kts 24°
2026-05-07 18:35 50.03700 8.58872 362 ft 2 kts 355°
2026-05-07 18:35 50.03744 8.58843 365 ft 10 kts 324°
2026-05-07 18:35 50.03755 8.58811 364 ft 1 kts 268°
2026-05-07 18:36 50.03742 8.58748 364 ft 15 kts 248°
2026-05-07 18:36 50.03690 8.58536 363 ft 25 kts 249°
2026-05-07 18:36 50.03621 8.58260 367 ft 29 kts 248°
2026-05-07 18:36 50.03551 8.57942 361 ft 33 kts 249°
2026-05-07 18:37 50.03464 8.57579 357 ft 38 kts 249°
2026-05-07 18:37 50.03384 8.57248 359 ft 33 kts 249°
2026-05-07 18:37 50.03317 8.56962 361 ft 28 kts 249°
2026-05-07 18:37 50.03242 8.56650 356 ft 34 kts 249°
2026-05-07 18:38 50.03154 8.56285 357 ft 38 kts 250°
2026-05-07 18:38 50.03072 8.55935 353 ft 34 kts 250°
2026-05-07 18:38 50.03003 8.55651 349 ft 29 kts 250°
2026-05-07 18:38 50.02929 8.55336 355 ft 33 kts 249°
2026-05-07 18:39 50.02850 8.55008 349 ft 24 kts 249°
2026-05-07 18:39 50.02849 8.54838 349 ft 16 kts 323°
2026-05-07 18:39 50.02926 8.54752 337 ft 11 kts 302°
2026-05-07 18:39 50.02941 8.54716 338 ft 0 kts 302°
2026-05-07 18:41 50.02953 8.54697 338 ft 8 kts 321°
2026-05-07 18:41 50.03063 8.54626 336 ft 23 kts 340°
2026-05-07 18:41 50.03230 8.54530 338 ft 28 kts 341°
2026-05-07 18:41 50.03413 8.54426 347 ft 21 kts 339°
2026-05-07 18:42 50.03480 8.54408 346 ft 5 kts 30°
2026-05-07 18:42 50.03500 8.54459 348 ft 7 kts 69°
2026-05-07 18:42 50.03504 8.54478 351 ft 0 kts 70°
2026-05-07 18:43 50.03516 8.54529 348 ft 15 kts 70°
2026-05-07 18:43 50.03642 8.55057 354 ft 90 kts 70°
2026-05-07 18:43 50.03925 8.56217 541 ft 125 kts 69°
2026-05-07 18:43 50.04257 8.57639 949 ft 147 kts 70°
2026-05-07 18:44 50.04592 8.59066 1815 ft 140 kts 69°
2026-05-07 18:44 50.04939 8.60547 2403 ft 154 kts 68°
2026-05-07 18:44 50.05384 8.62163 2880 ft 173 kts 53°
2026-05-07 18:44 50.06382 8.63295 3303 ft 192 kts 18°
2026-05-07 18:45 50.07767 8.63515 3690 ft 211 kts 358°
2026-05-07 18:45 50.09271 8.63434 4388 ft 218 kts 357°
2026-05-07 18:45 50.10829 8.63339 5276 ft 229 kts 356°
2026-05-07 18:45 50.12471 8.63235 5934 ft 249 kts 356°
2026-05-07 18:46 50.14273 8.63118 6621 ft 268 kts 356°
2026-05-07 18:46 50.16149 8.62995 7621 ft 270 kts 356°
2026-05-07 18:46 50.18046 8.62869 8666 ft 276 kts 356°
2026-05-07 18:46 50.19982 8.62740 9729 ft 281 kts 356°
2026-05-07 18:47 50.21966 8.62606 10632 ft 292 kts 356°
2026-05-07 18:47 50.24059 8.62466 11273 ft 310 kts 356°
2026-05-07 18:47 50.26261 8.62318 11814 ft 321 kts 356°
2026-05-07 18:47 50.28520 8.62167 12187 ft 327 kts 356°
2026-05-07 18:48 50.30779 8.61992 12845 ft 330 kts 352°
2026-05-07 18:48 50.33009 8.61196 14080 ft 330 kts 342°
2026-05-07 18:48 50.35242 8.60171 15074 ft 338 kts 342°
2026-05-07 18:48 50.37516 8.59152 16152 ft 342 kts 342°
2026-05-07 18:49 50.39839 8.58122 16815 ft 350 kts 343°
2026-05-07 18:49 50.42181 8.57090 17388 ft 351 kts 343°
2026-05-07 18:49 50.44537 8.56053 17923 ft 354 kts 343°
2026-05-07 18:49 50.46922 8.55005 18522 ft 357 kts 343°
2026-05-07 18:50 50.49320 8.53950 19073 ft 359 kts 342°
2026-05-07 18:50 50.51745 8.52881 19635 ft 362 kts 342°
2026-05-07 18:50 50.54151 8.51820 20187 ft 365 kts 342°
2026-05-07 18:50 50.56617 8.50731 20764 ft 368 kts 342°
2026-05-07 18:51 50.59080 8.49643 21356 ft 371 kts 342°
2026-05-07 18:51 50.61589 8.48533 21718 ft 374 kts 342°
2026-05-07 18:51 50.64096 8.47422 21974 ft 375 kts 342°
2026-05-07 18:51 50.66607 8.46309 22090 ft 373 kts 342°
2026-05-07 18:52 50.69089 8.45207 22082 ft 368 kts 342°
2026-05-07 18:52 50.71555 8.44110 22077 ft 368 kts 342°
2026-05-07 18:52 50.74016 8.43015 22064 ft 369 kts 342°
2026-05-07 18:52 50.76490 8.41914 22062 ft 369 kts 342°
2026-05-07 18:53 50.78966 8.40809 22071 ft 369 kts 342°
2026-05-07 18:53 50.81439 8.39705 22061 ft 369 kts 342°
2026-05-07 18:53 50.83915 8.38599 22064 ft 369 kts 342°
2026-05-07 18:53 50.86389 8.37493 22068 ft 369 kts 342°
2026-05-07 18:54 50.88862 8.36385 22073 ft 369 kts 342°
2026-05-07 18:54 50.91337 8.35275 22070 ft 369 kts 342°
2026-05-07 18:54 50.93809 8.34166 22076 ft 369 kts 342°
2026-05-07 18:54 50.96291 8.33050 22074 ft 370 kts 342°
2026-05-07 18:55 50.98760 8.31939 22078 ft 369 kts 342°
2026-05-07 18:55 51.01226 8.30798 22073 ft 369 kts 339°
2026-05-07 18:55 51.03477 8.29007 22091 ft 366 kts 328°
2026-05-07 18:55 51.05704 8.27023 22082 ft 367 kts 329°
2026-05-07 18:56 51.07934 8.25048 22089 ft 367 kts 329°
2026-05-07 18:56 51.10193 8.23040 22084 ft 367 kts 329°
2026-05-07 18:56 51.12417 8.21060 22094 ft 367 kts 329°
2026-05-07 18:56 51.14617 8.19100 22084 ft 367 kts 329°
2026-05-07 18:57 51.16842 8.17115 22092 ft 367 kts 329°
2026-05-07 18:57 51.19076 8.15126 22090 ft 367 kts 329°
2026-05-07 18:57 51.21221 8.12964 22070 ft 364 kts 317°
2026-05-07 18:57 51.22819 8.09883 21895 ft 360 kts 298°
2026-05-07 18:58 51.23806 8.06223 21486 ft 359 kts 289°
2026-05-07 18:58 51.24740 8.02519 21224 ft 361 kts 291°
2026-05-07 18:58 51.25705 7.98816 20985 ft 361 kts 291°
2026-05-07 18:58 51.26670 7.95100 20733 ft 362 kts 291°
2026-05-07 18:59 51.27632 7.91388 20480 ft 362 kts 291°
2026-05-07 18:59 51.28597 7.87659 20238 ft 363 kts 291°
2026-05-07 18:59 51.29549 7.83972 19991 ft 363 kts 291°
2026-05-07 18:59 51.30513 7.80232 19757 ft 364 kts 291°
2026-05-07 19:00 51.31463 7.76479 19415 ft 364 kts 290°
2026-05-07 19:00 51.32350 7.72686 19066 ft 364 kts 289°
2026-05-07 19:00 51.33228 7.68880 18695 ft 365 kts 289°
2026-05-07 19:00 51.34108 7.65066 18353 ft 366 kts 290°
2026-05-07 19:01 51.35024 7.61262 17795 ft 366 kts 290°
2026-05-07 19:01 51.35945 7.57451 17262 ft 368 kts 290°
2026-05-07 19:01 51.36868 7.53631 16758 ft 368 kts 290°
2026-05-07 19:01 51.37788 7.49812 16341 ft 366 kts 290°
2026-05-07 19:02 51.38669 7.45998 15917 ft 364 kts 289°
2026-05-07 19:02 51.39535 7.42193 15497 ft 362 kts 289°
2026-05-07 19:02 51.40395 7.38416 15079 ft 360 kts 289°
2026-05-07 19:02 51.41250 7.34652 14671 ft 358 kts 289°
2026-05-07 19:03 51.42088 7.30962 14276 ft 356 kts 289°
2026-05-07 19:03 51.42942 7.27195 13860 ft 354 kts 289°
2026-05-07 19:03 51.43768 7.23541 13411 ft 352 kts 289°
2026-05-07 19:03 51.44594 7.19875 12912 ft 348 kts 289°
2026-05-07 19:04 51.45412 7.16242 12397 ft 343 kts 289°
2026-05-07 19:04 51.46203 7.12717 11935 ft 326 kts 289°
2026-05-07 19:04 51.46949 7.09396 11494 ft 308 kts 289°
2026-05-07 19:04 51.47664 7.06195 11079 ft 303 kts 289°
2026-05-07 19:05 51.48358 7.03086 10687 ft 289 kts 289°
2026-05-07 19:05 51.49033 7.00049 10303 ft 289 kts 289°
2026-05-07 19:05 51.49698 6.97047 9872 ft 289 kts 289°
2026-05-07 19:05 51.50367 6.93994 9404 ft 290 kts 289°
2026-05-07 19:06 51.51023 6.90972 8974 ft 282 kts 289°
2026-05-07 19:06 51.52259 6.85154 8165 ft 269 kts 289°
2026-05-07 19:06 51.52806 6.82306 7771 ft 266 kts 287°
2026-05-07 19:07 51.53330 6.79451 7398 ft 266 kts 287°
2026-05-07 19:07 51.53842 6.76599 7030 ft 266 kts 287°
2026-05-07 19:07 51.54351 6.73746 6657 ft 263 kts 287°
2026-05-07 19:07 51.54856 6.70975 6280 ft 258 kts 287°
2026-05-07 19:08 51.55352 6.68252 5953 ft 247 kts 287°
2026-05-07 19:08 51.55830 6.65608 5573 ft 246 kts 287°
2026-05-07 19:08 51.56306 6.62974 5226 ft 245 kts 287°
2026-05-07 19:08 51.56772 6.60400 4922 ft 234 kts 287°
2026-05-07 19:09 51.57214 6.57942 4609 ft 224 kts 287°
2026-05-07 19:09 51.57640 6.55581 4351 ft 215 kts 287°
2026-05-07 19:09 51.58045 6.53332 4201 ft 205 kts 287°
2026-05-07 19:09 51.58436 6.51154 4065 ft 202 kts 287°
2026-05-07 19:10 51.58839 6.48970 3931 ft 207 kts 288°
2026-05-07 19:10 51.59219 6.46713 3791 ft 211 kts 283°
2026-05-07 19:10 51.59454 6.44379 3535 ft 211 kts 278°
2026-05-07 19:10 51.59591 6.42060 3272 ft 205 kts 275°
2026-05-07 19:11 51.59672 6.39811 3016 ft 198 kts 273°
2026-05-07 19:11 51.59728 6.37659 2768 ft 193 kts 273°
2026-05-07 19:11 51.59777 6.35531 2526 ft 189 kts 273°
2026-05-07 19:11 51.59823 6.33445 2274 ft 182 kts 273°
2026-05-07 19:12 51.59867 6.31451 2032 ft 173 kts 273°
2026-05-07 19:12 51.59907 6.29637 1833 ft 153 kts 273°
2026-05-07 19:12 51.59945 6.27933 1618 ft 153 kts 272°
2026-05-07 19:12 51.59983 6.26242 1403 ft 150 kts 273°
2026-05-07 19:13 51.60019 6.24575 1194 ft 149 kts 273°
2026-05-07 19:13 51.60055 6.22925 990 ft 148 kts 272°
2026-05-07 19:13 51.60081 6.21276 789 ft 146 kts 272°
2026-05-07 19:13 51.60111 6.19656 611 ft 144 kts 272°
2026-05-07 19:14 51.60147 6.18037 403 ft 145 kts 274°
2026-05-07 19:14 51.60191 6.16454 196 ft 139 kts 273°
2026-05-07 19:14 51.60231 6.14997 117 ft 113 kts 273°
2026-05-07 19:14 51.60257 6.13964 118 ft 81 kts 272°
2026-05-07 19:15 51.60266 6.13413 120 ft 67 kts 271°
2026-05-07 19:15 51.60282 6.12668 111 ft 37 kts 271°
2026-05-07 19:15 51.60273 6.12486 115 ft 9 kts 228°
2026-05-07 19:15 51.60211 6.12460 115 ft 12 kts 183°
2026-05-07 19:16 51.60114 6.12456 114 ft 4 kts 179°
2026-05-07 19:16 51.60104 6.12460 112 ft 1 kts 158°
2026-05-07 19:16 51.60092 6.12525 113 ft 15 kts 96°
2026-05-07 19:16 51.60086 6.12795 112 ft 30 kts 92°
2026-05-07 19:17 51.60078 6.13168 111 ft 35 kts 91°
2026-05-07 19:17 51.60068 6.13569 117 ft 32 kts 92°
2026-05-07 19:17 51.60061 6.13917 119 ft 33 kts 91°
2026-05-07 19:17 51.60056 6.14171 115 ft 17 kts 91°
2026-05-07 19:18 51.60050 6.14397 115 ft 23 kts 92°
2026-05-07 19:18 51.60049 6.14665 113 ft 20 kts 91°
2026-05-07 19:18 51.60039 6.14784 115 ft 2 kts 141°
2026-05-07 19:18 51.59993 6.14796 116 ft 13 kts 178°
2026-05-07 19:19 51.59961 6.14816 115 ft 2 kts 104°
2026-05-07 19:19 51.59959 6.14855 116 ft 3 kts 92°
2026-05-07 19:19 51.59958 6.14873 116 ft 1 kts 92°
2026-05-07 19:19 51.59958 6.14875 116 ft 0 kts 92°